Find Intelsat IS-29e

NORAD ID: 41308 Int'l Des: 2016-004 Owner: INTELU Country: US operational
MEOCIRCULAR

实时位置

正在加载3D地球...

关于 Intelsat IS-29e

正在加载描述...

即将过境

Passes for default location (London). Set your location on the main map for personalized predictions.

高度历史

Loading altitude history...

两行轨道根数

1 41308U 16004A 26104.28574977 -.00000252 00000-0 00000+0 0 9998
2 41308 6.3396 71.0709 0000541 320.6680 194.2710 1.00628119 37635
Epoch: Apr 14, 2026 • Age: 22 hours

当前状态

高度 35688.3 km
速度 3.08 km/s
星下点 5.25°N, 78°W
发射日期 Jan 27, 2016
运行时间 10.2 years
类型 communications

技术详情

分类 Payload
质量 6552.00 kg
干质量 2946.00 kg
总质量 6552.00 kg
长度 7.50 m
直径 3.00 m
跨度 44.00 m
形状 Box + 2 panels
制造商 BOES
平台类型 BSS-702MP
阶段状态 In Orbit
所有者/国家 INTELU/US

Most Searched